Terug naar catalogus

KUIPER-00119

ActiefCommunicatieLEO
NORAD 65155·PAYLOAD·🇺🇸 United States

Gelanceerd Aug 11, 2025 vanaf Cape Canaveral Space Force Station

Loading…

Volgende Passages (komende 24 uur)

TLE

VersSource: CelesTrak SupGP

Epoch: Sep 14, 2026, 19:33 UTC

1 65155C 25171Z   26257.81523148  .00005881  00000+0  77001-3 0  2578
2 65155  51.9010  46.8679 0000644 114.5314  23.6278 14.79917142    17

Volg KUIPER-00119 in realtime met AllMySat

Download on the App Store